| time (UTC) | temp F | wind direction | speed MPH | gust MPH | rain 1hr in | rain 24hr in | rain mn in | humidity % | barometer mb |
| 20260504050302 | 59 | 123 | 2.0 | 4.0 | 0.00 | 0.00 | 0.00 | 50 | 1001.3 |
| 20260504045800 | 59 | 129 | 3.0 | 6.0 | 0.00 | 0.00 | 0.00 | 52 | 1001.3 |
| 20260504045259 | 59 | 108 | 3.0 | 6.0 | 0.00 | 0.00 | 0.00 | 53 | 1001.3 |
| 20260504044759 | 58 | 114 | 3.0 | 6.0 | 0.00 | 0.00 | 0.00 | 53 | 1001.3 |
| 20260504044258 | 57 | 179 | 4.0 | 6.0 | 0.00 | 0.00 | 0.00 | 54 | 1001.3 |
| 20260504043756 | 56 | 136 | 4.0 | 6.0 | 0.00 | 0.00 | 0.00 | 56 | 1001.3 |
| 20260504043254 | 56 | 212 | 4.0 | 6.0 | 0.00 | 0.00 | 0.00 | 58 | 1001.3 |
| 20260504042753 | 55 | 141 | 4.0 | 6.0 | 0.00 | 0.00 | 0.00 | 59 | 1001.2 |
| 20260504042252 | 55 | 149 | 4.0 | 5.0 | 0.00 | 0.00 | 0.00 | 60 | 1001.2 |
| 20260504041751 | 54 | 138 | 3.0 | 4.0 | 0.00 | 0.00 | 0.00 | 61 | 1001.3 |
| 20260504041249 | 54 | 138 | 3.0 | 4.0 | 0.00 | 0.00 | 0.00 | 61 | 1001.3 |
| 20260504040748 | 53 | 150 | 3.0 | 4.0 | 0.00 | 0.00 | 0.00 | 63 | 1001.2 |
| 20260504040247 | 52 | 144 | 3.0 | 4.0 | 0.00 | 0.00 | 0.00 | 65 | 1001.2 |
| 20260504035746 | 52 | 126 | 3.0 | 3.0 | 0.00 | 0.00 | 0.00 | 66 | 1001.2 |
| 20260504035245 | 52 | 138 | 3.0 | 3.0 | 0.00 | 0.00 | 0.00 | 65 | 1001.2 |
| 20260504034744 | 51 | 132 | 3.0 | 3.0 | 0.00 | 0.00 | 0.00 | 66 | 1001.2 |
| 20260504034242 | 51 | 132 | 2.0 | 3.0 | 0.00 | 0.00 | 0.00 | 66 | 1001.3 |
| 20260504033741 | 51 | 126 | 2.0 | 3.0 | 0.00 | 0.00 | 0.00 | 66 | 1001.3 |
| 20260504033240 | 52 | 120 | 2.0 | 3.0 | 0.00 | 0.00 | 0.00 | 66 | 1001.2 |
| 20260504032739 | 51 | 150 | 3.0 | 3.0 | 0.00 | 0.00 | 0.00 | 65 | 1001.2 |
| 20260504032238 | 51 | 132 | 3.0 | 3.0 | 0.00 | 0.00 | 0.00 | 65 | 1001.2 |
| 20260504031737 | 52 | 132 | 3.0 | 3.0 | 0.00 | 0.00 | 0.00 | 63 | 1001.2 |
| 20260504031236 | 52 | 135 | 3.0 | 4.0 | 0.00 | 0.00 | 0.00 | 64 | 1001.1 |
| 20260504030735 | 53 | 138 | 3.0 | 4.0 | 0.00 | 0.00 | 0.00 | 63 | 1001.2 |
| 20260504030234 | 54 | 144 | 3.0 | 4.0 | 0.00 | 0.00 | 0.00 | 60 | 1001.2 |
| 20260504025733 | 53 | 144 | 2.0 | 3.0 | 0.00 | 0.00 | 0.00 | 61 | 1001.2 |
| 20260504025231 | 52 | 150 | 3.0 | 4.0 | 0.00 | 0.00 | 0.00 | 62 | 1001.2 |
| 20260504024730 | 52 | 130 | 3.0 | 4.0 | 0.00 | 0.00 | 0.00 | 64 | 1001.1 |
| 20260504024229 | 53 | 120 | 3.0 | 3.0 | 0.00 | 0.00 | 0.00 | 63 | 1001.1 |
| 20260504023727 | 52 | 144 | 3.0 | 3.0 | 0.00 | 0.00 | 0.00 | 63 | 1001.1 |
| 20260504023226 | 53 | 118 | 3.0 | 4.0 | 0.00 | 0.00 | 0.00 | 63 | 1001.1 |
| 20260504022726 | 53 | 138 | 3.0 | 3.0 | 0.00 | 0.00 | 0.00 | 62 | 1001.1 |
| 20260504022225 | 53 | 150 | 3.0 | 3.0 | 0.00 | 0.00 | 0.00 | 62 | 1001.1 |
| 20260504021724 | 53 | 126 | 3.0 | 3.0 | 0.00 | 0.00 | 0.00 | 62 | 1001.1 |
| 20260504021222 | 54 | 126 | 3.0 | 3.0 | 0.00 | 0.00 | 0.00 | 61 | 1001.2 |
| 20260504020721 | 55 | 113 | 3.0 | 4.0 | 0.00 | 0.00 | 0.00 | 58 | 1001.2 |
| 20260504020220 | 55 | 138 | 2.0 | 3.0 | 0.00 | 0.00 | 0.00 | 58 | 1001.2 |
| 20260504015719 | 55 | 124 | 2.0 | 3.0 | 0.00 | 0.00 | 0.00 | 58 | 1001.2 |
| 20260504015217 | 55 | 125 | 2.0 | 2.0 | 0.00 | 0.00 | 0.00 | 58 | 1001.2 |
| 20260504014716 | 55 | 129 | 2.0 | 3.0 | 0.00 | 0.00 | 0.00 | 58 | 1001.2 |
| 20260504014215 | 55 | 138 | 2.0 | 3.0 | 0.00 | 0.00 | 0.00 | 58 | 1001.2 |
| 20260504013713 | 55 | 114 | 3.0 | 4.0 | 0.00 | 0.00 | 0.00 | 58 | 1001.2 |
| 20260504013213 | 55 | 132 | 3.0 | 4.0 | 0.00 | 0.00 | 0.00 | 57 | 1001.2 |
| 20260504012712 | 56 | 136 | 3.0 | 4.0 | 0.00 | 0.00 | 0.00 | 57 | 1001.2 |
| 20260504012211 | 56 | 126 | 3.0 | 4.0 | 0.00 | 0.00 | 0.00 | 57 | 1001.1 |
| 20260504011710 | 56 | 132 | 3.0 | 3.0 | 0.00 | 0.00 | 0.00 | 57 | 1001.2 |
| 20260504011208 | 56 | 130 | 3.0 | 4.0 | 0.00 | 0.00 | 0.00 | 58 | 1001.1 |
| 20260504010707 | 56 | 142 | 3.0 | 4.0 | 0.00 | 0.00 | 0.00 | 57 | 1001.2 |
| 20260504010206 | 56 | 137 | 3.0 | 4.0 | 0.00 | 0.00 | 0.00 | 57 | 1001.2 |
| 20260504005706 | 56 | 136 | 3.0 | 4.0 | 0.00 | 0.00 | 0.00 | 57 | 1001.2 |
| 20260504005204 | 56 | 135 | 3.0 | 4.0 | 0.00 | 0.00 | 0.00 | 56 | 1001.2 |
| 20260504004703 | 56 | 138 | 3.0 | 4.0 | 0.00 | 0.00 | 0.00 | 56 | 1001.2 |
| 20260504004202 | 57 | 132 | 3.0 | 4.0 | 0.00 | 0.00 | 0.00 | 55 | 1001.2 |
| 20260504003701 | 58 | 156 | 2.0 | 4.0 | 0.00 | 0.00 | 0.00 | 53 | 1001.2 |
| 20260504003159 | 58 | 137 | 3.0 | 5.0 | 0.00 | 0.00 | 0.00 | 52 | 1001.2 |
| 20260504002658 | 57 | 105 | 3.0 | 4.0 | 0.00 | 0.00 | 0.00 | 53 | 1001.2 |
| 20260504002157 | 57 | 156 | 2.0 | 3.0 | 0.00 | 0.00 | 0.00 | 55 | 1001.2 |
| 20260504001655 | 57 | 159 | 2.0 | 4.0 | 0.00 | 0.00 | 0.00 | 53 | 1001.2 |
| 20260504001155 | 58 | 156 | 3.0 | 4.0 | 0.00 | 0.00 | 0.00 | 54 | 1001.3 |
| 20260504000653 | 58 | 170 | 2.0 | 3.0 | 0.00 | 0.00 | 0.00 | 52 | 1001.3 |
| 20260504000151 | 58 | 129 | 2.0 | 3.0 | 0.00 | 0.00 | 0.00 | 52 | 1001.3 |
| 20260503235651 | 59 | 198 | 2.0 | 4.0 | 0.00 | 0.00 | 0.00 | 51 | 1001.3 |
| 20260503234648 | 59 | 138 | 3.0 | 4.0 | 0.00 | 0.00 | 0.00 | 50 | 1001.3 |
| 20260503234147 | 60 | 131 | 3.0 | 4.0 | 0.00 | 0.00 | 0.00 | 50 | 1001.4 |
| 20260503233645 | 60 | 142 | 2.0 | 5.0 | 0.00 | 0.00 | 0.00 | 49 | 1001.4 |
| 20260503233144 | 60 | 143 | 3.0 | 4.0 | 0.00 | 0.00 | 0.00 | 49 | 1001.4 |
| 20260503232644 | 60 | 149 | 3.0 | 4.0 | 0.00 | 0.00 | 0.00 | 49 | 1001.4 |
| 20260503232142 | 60 | 173 | 2.0 | 4.0 | 0.00 | 0.00 | 0.00 | 49 | 1001.4 |
| 20260503231641 | 60 | 106 | 3.0 | 4.0 | 0.00 | 0.00 | 0.00 | 49 | 1001.4 |
| 20260503231139 | 60 | 156 | 2.0 | 4.0 | 0.00 | 0.00 | 0.00 | 48 | 1001.4 |
| 20260503230638 | 61 | 157 | 2.0 | 4.0 | 0.00 | 0.00 | 0.00 | 48 | 1001.5 |
| 20260503230137 | 61 | 120 | 3.0 | 4.0 | 0.00 | 0.00 | 0.00 | 47 | 1001.5 |
| 20260503225636 | 61 | 181 | 3.0 | 5.0 | 0.00 | 0.00 | 0.00 | 48 | 1001.5 |
| 20260503225135 | 61 | 138 | 3.0 | 4.0 | 0.00 | 0.00 | 0.00 | 47 | 1001.5 |
| 20260503224633 | 61 | 147 | 2.0 | 4.0 | 0.00 | 0.00 | 0.00 | 47 | 1001.5 |
| 20260503224132 | 61 | 200 | 3.0 | 5.0 | 0.00 | 0.00 | 0.00 | 47 | 1001.5 |
| 20260503223631 | 62 | 149 | 4.0 | 5.0 | 0.00 | 0.00 | 0.00 | 46 | 1001.4 |
| 20260503223131 | 62 | 178 | 4.0 | 5.0 | 0.00 | 0.00 | 0.00 | 46 | 1001.5 |
| 20260503222629 | 62 | 148 | 4.0 | 5.0 | 0.00 | 0.00 | 0.00 | 45 | 1001.5 |
| 20260503222128 | 62 | 126 | 4.0 | 6.0 | 0.00 | 0.00 | 0.00 | 45 | 1001.5 |
| 20260503221626 | 62 | 159 | 3.0 | 4.0 | 0.00 | 0.00 | 0.00 | 45 | 1001.5 |
| 20260503221126 | 63 | 210 | 2.0 | 4.0 | 0.00 | 0.00 | 0.00 | 44 | 1001.5 |
| 20260503220624 | 63 | 192 | 2.0 | 4.0 | 0.00 | 0.00 | 0.00 | 44 | 1001.6 |
| 20260503220123 | 64 | 145 | 3.0 | 6.0 | 0.00 | 0.00 | 0.00 | 43 | 1001.7 |
| 20260503215622 | 64 | 204 | 3.0 | 5.0 | 0.00 | 0.00 | 0.00 | 43 | 1001.7 |
| 20260503215121 | 64 | 174 | 3.0 | 5.0 | 0.00 | 0.00 | 0.00 | 43 | 1001.7 |
| 20260503214620 | 64 | 187 | 3.0 | 5.0 | 0.00 | 0.00 | 0.00 | 43 | 1001.7 |
| 20260503214119 | 63 | 118 | 3.0 | 5.0 | 0.00 | 0.00 | 0.00 | 42 | 1001.6 |
| 20260503213618 | 63 | 179 | 3.0 | 5.0 | 0.00 | 0.00 | 0.00 | 44 | 1001.6 |
| 20260503213117 | 62 | 0 | 3.0 | 4.0 | 0.00 | 0.00 | 0.00 | 45 | 1001.6 |
| 20260503212616 | 62 | 134 | 3.0 | 4.0 | 0.00 | 0.00 | 0.00 | 45 | 1001.7 |
| 20260503212115 | 62 | 118 | 2.0 | 4.0 | 0.00 | 0.00 | 0.00 | 45 | 1001.7 |
| 20260503211614 | 61 | 150 | 3.0 | 4.0 | 0.00 | 0.00 | 0.00 | 45 | 1001.7 |
| 20260503211113 | 61 | 144 | 3.0 | 4.0 | 0.00 | 0.00 | 0.00 | 46 | 1001.7 |
| 20260503210613 | 61 | 123 | 3.0 | 6.0 | 0.00 | 0.00 | 0.00 | 46 | 1001.7 |
| 20260503210112 | 61 | 144 | 3.0 | 4.0 | 0.00 | 0.00 | 0.00 | 45 | 1001.7 |
| 20260503205611 | 62 | 156 | 2.0 | 3.0 | 0.00 | 0.00 | 0.00 | 45 | 1001.7 |
| 20260503205110 | 61 | 125 | 2.0 | 3.0 | 0.00 | 0.00 | 0.00 | 46 | 1001.7 |
| 20260503204609 | 62 | 138 | 2.0 | 3.0 | 0.00 | 0.00 | 0.00 | 45 | 1001.8 |
| 20260503204107 | 62 | 118 | 2.0 | 2.0 | 0.00 | 0.00 | 0.00 | 45 | 1001.7 |
| 20260503203606 | 62 | 130 | 2.0 | 3.0 | 0.00 | 0.00 | 0.00 | 45 | 1001.7 |
| 20260503203106 | 61 | 135 | 3.0 | 3.0 | 0.00 | 0.00 | 0.00 | 46 | 1001.6 |
| 20260503202605 | 61 | 130 | 3.0 | 3.0 | 0.00 | 0.00 | 0.00 | 46 | 1001.6 |
| 20260503202104 | 61 | 137 | 3.0 | 4.0 | 0.00 | 0.00 | 0.00 | 46 | 1001.7 |
| 20260503201603 | 61 | 136 | 3.0 | 3.0 | 0.00 | 0.00 | 0.00 | 46 | 1001.7 |
| 20260503201102 | 62 | 130 | 3.0 | 4.0 | 0.00 | 0.00 | 0.00 | 45 | 1001.7 |
| 20260503200601 | 62 | 126 | 3.0 | 3.0 | 0.00 | 0.00 | 0.00 | 43 | 1001.7 |
| 20260503200100 | 62 | 144 | 3.0 | 3.0 | 0.00 | 0.00 | 0.00 | 45 | 1001.7 |
| 20260503195558 | 63 | 146 | 3.0 | 3.0 | 0.00 | 0.00 | 0.00 | 44 | 1001.8 |
| 20260503195057 | 64 | 132 | 3.0 | 4.0 | 0.00 | 0.00 | 0.00 | 43 | 1001.8 |
| 20260503194556 | 64 | 145 | 3.0 | 4.0 | 0.00 | 0.00 | 0.00 | 42 | 1001.8 |
| 20260503194054 | 64 | 141 | 3.0 | 4.0 | 0.00 | 0.00 | 0.00 | 41 | 1001.8 |
| 20260503193553 | 65 | 135 | 3.0 | 4.0 | 0.00 | 0.00 | 0.00 | 41 | 1001.8 |
| 20260503193052 | 64 | 148 | 2.0 | 3.0 | 0.00 | 0.00 | 0.00 | 40 | 1001.8 |
| 20260503192550 | 63 | 149 | 2.0 | 3.0 | 0.00 | 0.00 | 0.00 | 43 | 1001.7 |
| 20260503192050 | 64 | 130 | 3.0 | 3.0 | 0.00 | 0.00 | 0.00 | 43 | 1001.8 |
| 20260503191549 | 64 | 126 | 2.0 | 3.0 | 0.00 | 0.00 | 0.00 | 43 | 1001.7 |
| 20260503191048 | 65 | 123 | 2.0 | 3.0 | 0.00 | 0.00 | 0.00 | 41 | 1001.8 |
| 20260503190547 | 65 | 120 | 2.0 | 3.0 | 0.00 | 0.00 | 0.00 | 40 | 1001.8 |
| 20260503190045 | 65 | 62 | 2.0 | 3.0 | 0.00 | 0.00 | 0.00 | 40 | 1001.7 |
| 20260503185544 | 66 | 128 | 3.0 | 4.0 | 0.00 | 0.00 | 0.00 | 38 | 1001.7 |
| 20260503185043 | 67 | 168 | 3.0 | 4.0 | 0.00 | 0.00 | 0.00 | 38 | 1001.7 |
| 20260503184542 | 67 | 151 | 3.0 | 4.0 | 0.00 | 0.00 | 0.00 | 37 | 1001.7 |
| 20260503184041 | 67 | 136 | 3.0 | 3.0 | 0.00 | 0.00 | 0.00 | 37 | 1001.6 |
| 20260503183540 | 68 | 142 | 3.0 | 4.0 | 0.00 | 0.00 | 0.00 | 37 | 1001.6 |
| 20260503182537 | 69 | 133 | 2.0 | 3.0 | 0.00 | 0.00 | 0.00 | 35 | 1001.5 |
| 20260503182037 | 70 | 144 | 2.0 | 3.0 | 0.00 | 0.00 | 0.00 | 35 | 1001.5 |
| 20260503181535 | 70 | 126 | 2.0 | 3.0 | 0.00 | 0.00 | 0.00 | 34 | 1001.5 |
| 20260503181034 | 71 | 168 | 2.0 | 4.0 | 0.00 | 0.00 | 0.00 | 33 | 1001.4 |
| 20260503180533 | 71 | 150 | 1.0 | 2.0 | 0.00 | 0.00 | 0.00 | 32 | 1001.4 |
| 20260503180032 | 72 | 168 | 2.0 | 4.0 | 0.00 | 0.00 | 0.00 | 32 | 1001.4 |
| 20260503175531 | 73 | 128 | 2.0 | 3.0 | 0.00 | 0.00 | 0.00 | 32 | 1001.4 |
| 20260503175030 | 73 | 160 | 2.0 | 3.0 | 0.00 | 0.00 | 0.00 | 31 | 1001.3 |
| 20260503174529 | 74 | 146 | 2.0 | 3.0 | 0.00 | 0.00 | 0.00 | 30 | 1001.3 |
| 20260503174028 | 74 | 144 | 2.0 | 4.0 | 0.00 | 0.00 | 0.00 | 29 | 1001.3 |
| 20260503173526 | 74 | 168 | 2.0 | 4.0 | 0.00 | 0.00 | 0.00 | 29 | 1001.3 |
| 20260503173025 | 75 | 98 | 2.0 | 4.0 | 0.00 | 0.00 | 0.00 | 29 | 1001.3 |
| 20260503172524 | 75 | 140 | 1.0 | 3.0 | 0.00 | 0.00 | 0.00 | 29 | 1001.3 |
| 20260503172023 | 75 | 160 | 1.0 | 3.0 | 0.00 | 0.00 | 0.00 | 29 | 1001.3 |
| 20260503171522 | 75 | 133 | 2.0 | 4.0 | 0.00 | 0.00 | 0.00 | 28 | 1001.3 |
| 20260503171020 | 76 | 121 | 0.0 | 2.0 | 0.00 | 0.00 | 0.00 | 25 | 1001.3 |
| 20260503170519 | 76 | 211 | 2.0 | 4.0 | 0.00 | 0.00 | 0.00 | 24 | 1001.2 |
| 20260503150947 | 81 | 306 | 4.0 | 6.0 | 0.00 | 0.00 | 0.00 | 20 | 1001.7 |
| 20260503150447 | 81 | 234 | 4.0 | 10.0 | 0.00 | 0.00 | 0.00 | 20 | 1001.7 |
| 20260503130919 | 81 | 127 | 4.0 | 8.0 | 0.00 | 0.00 | 0.00 | 21 | 1003.0 |
| 20260503130418 | 79 | 228 | 6.0 | 11.0 | 0.00 | 0.00 | 0.00 | 22 | 1003.1 |
| 20260503110351 | 78 | 138 | 5.0 | 9.0 | 0.00 | 0.00 | 0.00 | 23 | 1004.4 |
| 20260503090325 | 75 | 180 | 6.0 | 11.0 | 0.00 | 0.00 | 0.00 | 27 | 1005.5 |
| 20260503081314 | 75 | 138 | 3.0 | 7.0 | 0.00 | 0.00 | 0.00 | 25 | 1005.8 |
| 20260503080812 | 75 | 204 | 3.0 | 6.0 | 0.00 | 0.00 | 0.00 | 28 | 1005.8 |
| 20260503080311 | 74 | 192 | 3.0 | 5.0 | 0.00 | 0.00 | 0.00 | 27 | 1005.9 |
| 20260503072805 | 71 | 216 | 5.0 | 9.0 | 0.00 | 0.00 | 0.00 | 31 | 1006.0 |
| 20260503072305 | 71 | 198 | 3.0 | 4.0 | 0.00 | 0.00 | 0.00 | 30 | 1006.0 |
| 20260503071803 | 71 | 205 | 4.0 | 7.0 | 0.00 | 0.00 | 0.00 | 30 | 1006.1 |
| 20260503071302 | 71 | 200 | 4.0 | 7.0 | 0.00 | 0.00 | 0.00 | 30 | 1006.1 |
| 20260503070800 | 70 | 102 | 5.0 | 12.0 | 0.00 | 0.00 | 0.00 | 33 | 1006.1 |
| 20260503070259 | 69 | 162 | 4.0 | 11.0 | 0.00 | 0.00 | 0.00 | 32 | 1006.1 |
| 20260503060243 | 63 | 126 | 4.0 | 7.0 | 0.00 | 0.00 | 0.00 | 44 | 1006.4 |
| 20260503054740 | 62 | 106 | 4.0 | 9.0 | 0.00 | 0.00 | 0.00 | 46 | 1006.4 |
| 20260503054238 | 62 | 144 | 3.0 | 8.0 | 0.00 | 0.00 | 0.00 | 48 | 1006.5 |
| 20260503053737 | 61 | 241 | 3.0 | 6.0 | 0.00 | 0.00 | 0.00 | 48 | 1006.5 |
| 20260503053236 | 61 | 138 | 3.0 | 6.0 | 0.00 | 0.00 | 0.00 | 49 | 1006.5 |
| 20260503052735 | 60 | 132 | 3.0 | 6.0 | 0.00 | 0.00 | 0.00 | 49 | 1006.5 |
| 20260503052234 | 59 | 107 | 4.0 | 6.0 | 0.00 | 0.00 | 0.00 | 50 | 1006.5 |
| 20260503051732 | 59 | 148 | 4.0 | 6.0 | 0.00 | 0.00 | 0.00 | 51 | 1006.5 |